Regional Weather Roundup
Issued by NWS

Home | Current Version | Previous Version | Text Only | Print | Product List | Glossary Off
Versions: 1 2 3 4 5 6 7 8 9 10 11 12 13 14 15 16 17 18 19 20 21 22 23 24 25 26 27 28 29 30 31 32 33 34 35 36 37 38 39 40 41 42 43 44 45 46 47 48 49 50

000
ASUS45 KTFX 240604
RWRMT
MONTANA HOURLY WEATHER ROUNDUP
NATIONAL WEATHER SERVICE GREAT FALLS MT
1204 AM MDT THU JUL 24 2014

NOTE: "FAIR" INDICATES FEW OR NO CLOUDS BELOW 12000 FEET WITH NO
SIGNIFICANT WEATHER AND/OR OBSTRUCTIONS TO VISIBILITY.

* THESE STATIONS ARE NOT UNDER NWS QUALITY CONTROL. THEY DO NOT
   REPORT WEATHER SUCH AS PRECIPITATION OR FOG.

MTZ001>007-043-240700-
WEST OF THE DIVIDE
CITY           SKY/WX    TMP DP  RH WIND       PRES   REMARKS
KALISPELL      PTCLDY    66  52  61 CALM      29.95S
MISSOULA       PTCLDY    70  54  57 NW21G26   29.96R
BUTTE          CLEAR     57  52  83 CALM      30.03S
MULLAN PASS    CLOUDY    45  45 100 NW6       30.15R
* ESSEX        N/A       61  55  81 NW2        N/A
* LINCOLN      N/A       55  55 100 NE3        N/A
* LOOKOUT PASS N/A       53  49  86 VRB6       N/A
* POLSON       N/A       63  50  63 N3G13      N/A
* RONAN APT    CLEAR     70  54  57 NW6        N/A
* SEELEY LAKE  N/A       60  47  62 E3         N/A
* THOMP F APT  PTCLDY    70  29  22 N4G9       N/A
$$

MTZ008-052>055-240700-
SOUTHWEST MONTANA
CITY           SKY/WX    TMP DP  RH WIND       PRES   REMARKS
BOZEMAN        CLEAR     63  45  52 E6        29.92F
DILLON         CLEAR     61  37  41 S6        29.97S
W YELLOWSTONE  CLEAR     50  43  77 CALM      30.14S
* THREE FORKS  CLEAR     72  57  59 N7         N/A
* BOULDER HILL N/A       58  47  67 N/A        N/A
* MONIDA PASS  N/A       64  26  24 SE4        N/A
* RAYNOLDS PAS N/A       60  39  46 SE13       N/A
* WHITEHALL    N/A       65  48  54 NE1G6      N/A
* WISE RIVER   N/A       57  50  78 SE4        N/A
$$

MTZ009>010-012-014-046-048-049-054-240700-
EAST SLOPES AND CENTRAL MONTANA
CITY           SKY/WX    TMP DP  RH WIND       PRES   REMARKS
CUT BANK       MOCLDY    63  54  73 NW10      29.86F
GREAT FALLS    PTCLDY    64  54  70 CALM      29.89R
HELENA         CLEAR     64  54  70 NW3       29.91S
MALMSTROM AFB  PTCLDY    63  54  73 S10       29.90R
* CONRAD       PTCLDY    70  57  64 SW6        N/A
* DEARBORN     N/A       66  56  70 S2         N/A
* EAST GLACIER N/A       58  50  75 N9         N/A
* MONARCH      N/A       62  45  54 S11        N/A
* ROGERS PASS  N/A       56  49  77 NW3G8      N/A
* SAINT MARY   N/A       59  53  81 SE4G14     N/A
* SWEET GRASS  N/A       73  54  51 E5         N/A
$$

MTZ011-013-016-021-035-040-045-047-050-051-240700-
NORTH CENTRAL MONTANA
CITY           SKY/WX    TMP DP  RH WIND       PRES   REMARKS
HAVRE          TSTM      66  61  84 NW15      29.84R
LEWISTOWN      MOCLDY    68  54  61 E10       29.93F
* CHESTER      N/A       65  57  75 S9G20      N/A
* DENTON       N/A       73  48  41 S12        N/A
* JUDITH GAP   N/A       67  47  49 VRB9G15    N/A
$$

MTZ017>020-022>027-061-062-240700-
NORTHEAST MONTANA
CITY           SKY/WX    TMP DP  RH WIND       PRES   REMARKS
GLASGOW        CLOUDY    79  63  58 E17G29    29.87R
GLENDIVE       PTCLDY    73  55  53 SE10      29.93S
JORDAN         PTCLDY    77  63  62 E12       29.85R
SIDNEY         PTCLDY    73  55  53 S7        29.95F
WOLF POINT     PTCLDY    79  61  54 E15       29.91S
* BEAVER HILL  N/A       70  57  64 SE28G37    N/A
* CIRCLE       N/A       76  63  64 E13        N/A
* LINDSAY DVD  N/A       69  60  73 E12G17     N/A
* NAVAJO       N/A       70  63  79 SE11G18    N/A
$$

MTZ028>042-056>058-240700-
SOUTHCENTRAL AND SOUTHEAST MONTANA
CITY           SKY/WX    TMP DP  RH WIND       PRES   REMARKS
BAKER          CLEAR     68  57  68 SE18G29   29.94F
BILLINGS       CLEAR     82  61  49 S3        29.86F HI  83
LIVINGSTON     CLEAR     75  48  39 SE8       29.93F
MILES CITY     PTCLDY    81  61  51 SE7       29.83F HI  82
* LAUREL APT   CLEAR     73  61  66 N/A        N/A
* ROUNDUP APT  CLEAR     75  55  50 N/A        N/A
* ALZADA       N/A       78  60  54 NE15G20    N/A
* HYSHAM       N/A       79  57  47 E2G8       N/A
* LAME DEER    N/A       79  52  39 SE9        N/A
* REED POINT   N/A       67  60  78 NW2        N/A
* ROSCOE HILL  N/A       70  49  47 SW7        N/A
$$

REGIONAL REPORTS...DAKOTAS
CITY           SKY/WX    TMP DP  RH WIND       PRES   REMARKS
WILLISTON      MOCLDY    73  61  66 SE13G18   29.98F
DICKINSON      CLEAR     66  55  68 SE18G26   30.00F
CROSBY         N/A       64  64 100 E12       30.03S
TIOGA          CLEAR     64  64 100 SE13      30.06F
WATFORD CITY   CLEAR     70  57  64 SE17G24   29.97F
BISMARCK       PTCLDY    66  57  73 SE13      30.08F
GRAND FORKS    CLEAR     61  57  87 S3        30.16S
FARGO          CLEAR     64  59  84 E7        30.15F
BUFFALO SD     CLOUDY    72  57  59 SE22G29   29.91F
RAPID CITY     PTCLDY    70  63  79 SE8       30.03S
$$

REGIONAL REPORTS...WYOMING/IDAHO/WASHINGTON
CITY           SKY/WX    TMP DP  RH WIND       PRES   REMARKS
GILLETTE       PTCLDY    81  59  47 SE12G22   30.00R HI  81
SHERIDAN       PTCLDY    68  55  63 CALM      29.91F
YELLOWSTONE LA CLEAR     50  39  66 CALM      30.27F
SALMON         CLEAR     73  45  37 SW9       29.91S
MULLAN PASS    CLOUDY    45  45 100 NW6       30.15S
SPOKANE        MOCLDY    59  52  78 S13       30.04S
$$

REGIONAL REPORTS...ALBERTA
CITY           SKY/WX    TMP DP  RH WIND       PRES   REMARKS
LETHBRIDGE     TSTM      63  57  81 W16G22    29.90S

$$



USA.gov is the U.S. government's official web portal to all federal, state and local government web resources and services.